Andrews, TX

11:53 PM CST on December 05, 2019 (GMT -0600)
Andrews

Weather History for KE11 - September, 2019

Change the Weather History Date:

Sunday, September 15, 2019

  Actual Average (KMAF) Record (KMAF)
Temperature  
Mean Temperature 77 °F -  
Max Temperature 90 °F 87 °F 100 °F (1965)
Min Temperature 64 °F 62 °F 47 °F (1993)
Cooling Degree Days 12    
Growing Degree Days 27 (Base 50)    
Moisture  
Dew Point 54 °F    
Average Humidity 48    
Maximum Humidity 75    
Minimum Humidity 23    
Precipitation  
Precipitation 0.00 in - - ()
Sea Level Pressure  
Sea Level Pressure 30.16 in    
Wind  
Wind Speed 5 mph ()    
Max Wind Speed 16 mph    
Max Gust Speed 22 mph    
Visibility 10.0 miles    
Events      
Averages and records for this station are not official NWS values.
T = Trace of Precipitation, MM = Missing Value Source: Averaged Metar Reports

Daily Weather History Graph

Daily Weather History Graph

Search for Another Location

Airport or City:

Astronomy

Sep. 15, 2019 Rise Set
Actual Time 7:33 AM CDT 7:56 PM CDT
Civil Twilight 7:09 AM CDT 8:20 PM CDT
Nautical Twilight 6:40 AM CDT 8:49 PM CDT
Astronomical Twilight 6:11 AM CDT 9:18 PM CDT
Moon 9:08 PM CDT (9/15) 8:44 AM CDT (9/15)
Length of Visible Light 13h 11m
Length of Day
12h 22m
Full, 98% of the Moon is Illuminated
Sep 15
Full
Sep 21
Last Quarter
Sep 28
New
Oct 5
First Quarter
Oct 13
Full

Hourly Weather History & Observations

Time (CDT) Temp. Heat Index Dew Point Humidity Pressure Visibility Wind Dir Wind Speed Gust Speed Precip Events Conditions
12:15 AM 72.3 °F - 57.2 °F 59% 30.20 in 10.0 mi SE 5.8 mph - N/A   Scattered Clouds
12:35 AM 72.1 °F - 57.2 °F 59% 30.20 in 10.0 mi SE 4.6 mph - N/A   Mostly Cloudy
12:55 AM 71.8 °F - 57.2 °F 60% 30.20 in 10.0 mi SE 3.5 mph - N/A   Overcast
1:15 AM 72.5 °F - 57.2 °F 59% 30.19 in 10.0 mi SE 3.5 mph - N/A   Overcast
1:35 AM 72.1 °F - 57.2 °F 59% 30.19 in 10.0 mi SE 4.6 mph - N/A   Overcast
1:55 AM 71.1 °F - 57.0 °F 61% 30.19 in 10.0 mi SE 5.8 mph - N/A   Mostly Cloudy
2:35 AM 69.1 °F - 57.2 °F 66% 30.19 in 10.0 mi SSE 4.6 mph - N/A   Clear
2:55 AM 68.4 °F - 57.2 °F 67% 30.19 in 10.0 mi Calm Calm - N/A   Clear
3:15 AM 67.5 °F - 57.0 °F 69% 30.19 in 10.0 mi South 4.6 mph - N/A   Clear
3:35 AM 67.1 °F - 56.7 °F 69% 30.18 in 10.0 mi South 4.6 mph - N/A   Clear
3:55 AM 67.1 °F - 56.5 °F 69% 30.18 in 10.0 mi South 3.5 mph - N/A   Clear
4:15 AM 66.2 °F - 56.7 °F 71% 30.18 in 10.0 mi SSE 4.6 mph - N/A   Clear
4:35 AM 65.7 °F - 56.7 °F 73% 30.18 in 10.0 mi Calm Calm - N/A   Clear
4:55 AM 65.3 °F - 56.7 °F 74% 30.18 in 10.0 mi Calm Calm - N/A   Clear
5:15 AM 65.7 °F - 56.7 °F 73% 30.18 in 10.0 mi Calm Calm - N/A   Clear
5:35 AM 65.7 °F - 56.3 °F 72% 30.18 in 10.0 mi Calm Calm - N/A   Clear
5:55 AM 66.2 °F - 55.6 °F 69% 30.18 in 10.0 mi Calm Calm - N/A   Clear
6:15 AM 66.2 °F - 55.4 °F 68% 30.18 in 10.0 mi South 3.5 mph - N/A   Clear
6:35 AM 65.8 °F - 55.4 °F 69% 30.19 in 10.0 mi Calm Calm - N/A   Clear
6:55 AM 65.8 °F - 55.8 °F 70% 30.19 in 10.0 mi Calm Calm - N/A   Clear
7:15 AM 65.8 °F - 55.4 °F 69% 30.19 in 10.0 mi Calm Calm - N/A   Clear
7:35 AM 64.8 °F - 55.2 °F 71% 30.19 in 10.0 mi Calm Calm - N/A   Clear
7:55 AM 64.4 °F - 56.3 °F 75% 30.19 in 10.0 mi Calm Calm - N/A   Clear
8:15 AM 66.0 °F - 55.6 °F 69% 30.20 in 10.0 mi Calm Calm - N/A   Clear
8:35 AM 68.2 °F - 57.2 °F 68% 30.20 in 10.0 mi Calm Calm - N/A   Clear
8:50 AM 69.8 °F - 58.5 °F 67% 30.20 in 10.0 mi East 3.5 mph - N/A   Clear
9:35 AM 74.5 °F - 57.0 °F 54% 30.21 in 10.0 mi SSE 4.6 mph - N/A   Clear
9:55 AM 76.8 °F - 57.2 °F 51% 30.21 in 10.0 mi SSE 6.9 mph - N/A   Clear
10:15 AM 78.8 °F - 57.6 °F 48% 30.21 in 10.0 mi SSE 8.1 mph - N/A   Clear
10:35 AM 79.3 °F - 57.0 °F 46% 30.21 in 10.0 mi South 9.2 mph - N/A   Clear
10:55 AM 80.8 °F 80.8 °F 56.1 °F 43% 30.22 in 10.0 mi SSE 8.1 mph - N/A   Clear
11:15 AM 82.9 °F 82.0 °F 55.0 °F 38% 30.21 in 10.0 mi South 6.9 mph 18.4 mph N/A   Clear
11:35 AM 83.5 °F 82.2 °F 54.0 °F 36% 30.21 in 10.0 mi SSE 12.7 mph 16.1 mph N/A   Clear
11:55 AM 84.4 °F 82.9 °F 53.6 °F 35% 30.21 in 10.0 mi SSE 15.0 mph 20.7 mph N/A   Clear
12:15 PM 84.2 °F 82.9 °F 54.3 °F 36% 30.21 in 10.0 mi SSE 9.2 mph 18.4 mph N/A   Clear
12:35 PM 83.3 °F 82.1 °F 53.6 °F 36% 30.20 in 10.0 mi SSE 5.8 mph 18.4 mph N/A   Scattered Clouds
12:55 PM 84.4 °F 82.8 °F 53.4 °F 34% 30.20 in 10.0 mi South 13.8 mph 17.3 mph N/A   Scattered Clouds
1:15 PM 86.2 °F 84.2 °F 53.1 °F 32% 30.19 in 10.0 mi SE 15.0 mph 19.6 mph N/A   Scattered Clouds
1:35 PM 84.9 °F 83.2 °F 53.1 °F 33% 30.18 in 10.0 mi SE 8.1 mph - N/A   Scattered Clouds
1:55 PM 87.1 °F 84.9 °F 53.1 °F 31% 30.18 in 10.0 mi SSE 15.0 mph - N/A   Scattered Clouds
2:35 PM 86.7 °F - 50.5 °F 29% 30.16 in 10.0 mi SE 12.7 mph 18.4 mph N/A   Clear
2:55 PM 88.7 °F - 50.2 °F 27% 30.15 in 10.0 mi South 11.5 mph 16.1 mph N/A   Scattered Clouds
3:15 PM 87.8 °F - 48.6 °F 26% 30.14 in 10.0 mi SSE 10.4 mph 17.3 mph N/A   Scattered Clouds
3:35 PM 86.4 °F - 47.5 °F 26% 30.13 in 10.0 mi SSE 15.0 mph 18.4 mph N/A   Mostly Cloudy
3:55 PM 89.6 °F - 48.0 °F 24% 30.12 in 10.0 mi ESE 11.5 mph 19.6 mph N/A   Mostly Cloudy
4:15 PM 90.0 °F - 48.0 °F 24% 30.11 in 10.0 mi SSE 10.4 mph 19.6 mph N/A   Mostly Cloudy
4:35 PM 89.2 °F - 48.7 °F 25% 30.10 in 10.0 mi SSE 12.7 mph 21.9 mph N/A   Scattered Clouds
4:55 PM 87.3 °F - 48.2 °F 26% 30.10 in 10.0 mi SSE 16.1 mph 19.6 mph N/A   Scattered Clouds
5:15 PM 88.9 °F - 46.8 °F 23% 30.10 in 10.0 mi SSE 11.5 mph 17.3 mph N/A   Scattered Clouds
5:35 PM 87.8 °F - 46.6 °F 24% 30.09 in 10.0 mi SE 8.1 mph 13.8 mph N/A   Clear
5:55 PM 87.8 °F - 46.9 °F 24% 30.09 in 10.0 mi SSE 13.8 mph - N/A   Scattered Clouds
6:15 PM 88.2 °F - 47.5 °F 24% 30.09 in 10.0 mi SE 13.8 mph 20.7 mph N/A   Scattered Clouds
6:35 PM 87.3 °F - 47.3 °F 25% 30.08 in 10.0 mi SE 11.5 mph - N/A   Mostly Cloudy
6:55 PM 86.5 °F - 47.7 °F 26% 30.09 in 10.0 mi SE 13.8 mph 17.3 mph N/A   Scattered Clouds
7:15 PM 84.7 °F - 48.4 °F 28% 30.09 in 10.0 mi SE 8.1 mph - N/A   Scattered Clouds
7:35 PM 83.3 °F - 50.9 °F 32% 30.09 in 10.0 mi ESE 11.5 mph 18.4 mph N/A   Scattered Clouds
7:55 PM 81.1 °F - 51.1 °F 35% 30.09 in 10.0 mi ESE 6.9 mph - N/A   Scattered Clouds
8:15 PM 79.3 °F - 51.8 °F 38% 30.09 in 10.0 mi ESE 5.8 mph - N/A   Clear
8:35 PM 78.1 °F - 52.0 °F 40% 30.10 in 10.0 mi ESE 5.8 mph - N/A   Clear
8:55 PM 76.8 °F - 52.3 °F 42% 30.10 in 10.0 mi ESE 4.6 mph - N/A   Clear
9:15 PM 77.0 °F - 52.5 °F 42% 30.11 in 10.0 mi ESE 6.9 mph - N/A   Scattered Clouds
9:35 PM 77.0 °F - 52.7 °F 43% 30.12 in 10.0 mi ESE 5.8 mph - N/A   Scattered Clouds
9:55 PM 76.3 °F - 52.7 °F 44% 30.12 in 10.0 mi SE 8.1 mph - N/A   Scattered Clouds
10:15 PM 75.2 °F - 53.1 °F 46% 30.13 in 10.0 mi SE 5.8 mph - N/A   Clear
10:35 PM 73.6 °F - 53.2 °F 49% 30.14 in 10.0 mi SE 6.9 mph - N/A   Clear
10:55 PM 72.5 °F - 53.6 °F 51% 30.14 in 10.0 mi SE 5.8 mph - N/A   Clear
11:15 PM 71.8 °F - 53.6 °F 53% 30.14 in 10.0 mi SE 5.8 mph - N/A   Clear
11:35 PM 71.2 °F - 53.6 °F 54% 30.14 in 10.0 mi SE 5.8 mph - N/A   Clear
11:55 PM 71.2 °F - 53.6 °F 54% 30.14 in 10.0 mi SSE 5.8 mph - N/A   Clear